Tracking 22993 objects as of 10-May-2021
HD Live streaming from Space Station
objects crossing your sky now

AEROCUBE 14A

Track AEROCUBE 14A now!
10-day predictions


NORAD ID: 45114
Int'l Code: 2019-071D
Perigee: 458.0 km
Apogee: 472.8 km
Inclination: 51.6 °
Period: 93.8 minutes
Semi major axis: 6836 km
RCS: Unknown
Launch date: November 2, 2019
Source: United States (US)
Launch site: WALLOPS ISLAND (WLPIS)
aabbcc
Your satellite tracking list
Your tracking list is empty




NASA's NSSDC Master Catalog

Two Line Element Set (TLE):
1 45114U 19071D   21129.63870208  .00002045  00000-0  68534-4 0  9993
2 45114  51.6415 225.1181 0010851 154.3769 205.7754 15.35886118 71216
Source of the keplerian elements: Caltech